World > North America > United States > Pennsylvania > Portersville

Hourly Portersville, PA Regional Weather

Feedback E-mail the Weather

Quick WX

Portersville, PA Weather Maps

°F °C°F °C
Portersville Weather Map
UTC Time: 9/25/2022, 20:52
Your Time:

Portersville, PA Regional Weather

Expires:202209252100;;447190
ASUS41 KCTP 252010
RWRCTP

REGIONAL WEATHER ROUNDUP
NATIONAL WEATHER SERVICE STATE COLLEGE PA
400 PM EDT SUN SEP 25 2022

Note: "fair" indicates few or no clouds below 12,000 feet with no 
significant weather and/or obstructions to visibility.

* = STATION THAT DOES NOT REPORT PRECIPITATION /E.G. RAIN...SNOW...ETC/
    THUNDER OR FOG.


PAZ002>004-007>009-013>016-020>023-029>032-252100-
WESTERN PENNSYLVANIA
  
CITY           SKY/WX    TMP DP  RH WIND       PRES   REMARKS
ERIE           PTSUNNY   64  54  69 W13G20    29.58S                  
MEADVILLE      LGT RAIN  58  56  93 W9        29.61R                  
FRANKLIN       CLOUDY    58  58 100 W8        29.62R                  
NEW CASTLE     LGT RAIN  59  57  93 W10         N/A                   
BEAVER COUNTY    N/A     63  54  72 W8G20     29.64R                  
BUTLER         LGT RAIN  58  56  93 W9        29.64R                  
PITTSBURGH INT PTSUNNY   68  55  63 W16       29.61R                  
PITTSBURGH     PTSUNNY   71  54  54 W17G26    29.61S                  
INDIANA*       PTSUNNY   70  54  56 W21G29    29.62S                  
LATROBE        MOSUNNY   70  55  60 SW23G31   29.61F                  
WASHINGTON CO* LGT RAIN  63  58  83 SW9       29.66S                  
$$


SKY/WX - Weather  TMP - Temperature  DP - Dew Point  RH - Humidity
WIND - Wind Direction/Speed PRES - Barometric Pressure VSB - Visibility
WCI - Wind Chill Index E13G22 Wind - East Wind 13 mph/Gusts of 22 mph

Trending Headlines

Trending Entertainment Headlines

Portersville Radar Loop

Use the map search tool if you want to place a location marker on the radar map...

Portersville Quick Facts

National Two Day Weather Forecast


E-mail the Portersville Weather Forecast

Voice your opinion or tell us about page issues...